Tracking 19245 objects as of 14-Aug-2018
HD Live streaming from Space Station
objects crossing your sky now

FENGYUN 1C DEB

Track FENGYUN 1C DEB now!
10-day predictions


NORAD ID: 30504
Int'l Code: 1999-025AHS
Perigee: 762.9 km
Apogee: 933.3 km
Inclination: 99.0 °
Period: 101.7 minutes
Semi major axis: 7219 km
RCS: 0.0107 m2 (small)
Launch date: May 10, 1999
Source: People's Republic of China (PRC)
Launch site: Taiyaun Space Center, China (TSC)

Note: This is SATELLITE DEBRIS
aabbcc
Your satellite tracking list
Your tracking list is empty




NASA's NSSDC Master Catalog

Two Line Element Set (TLE):
1 30504U 99025AHS 18224.81866979 +.00000156 +00000-0 +96851-4 0  9993
2 30504 098.9691 182.6048 0118069 255.9605 167.0161 14.15397754594570
Source of the keplerian elements: AFSPC